CAPE
5 0 0 0 0 0 0 0 0 5 15 0 0 0 0 0 0 0 0 0 7 33 16 5 19 196 358 408 462 430 125 65 348 210 0 0 0 0 0 0 0 0
38 16 33 0 0 0 0 0 44 20 1 0 0 0 0 0 0 0 0 0 0 0 0 0 0 0 0 0 176 56 0 0 187 160 0 0 0 0 0 0 0 0
96 23 0 0 0 0 28 64 12 0 0 0 0 0 0 0 0 0 0 0 0 0 0 0 0 0 0 0 0 0 0 0 0 0 0 0 0 0 0 0 0 0
98 48 0 0 0 0 0 0 0 0 0 0 0 0 0 0 0 0 0 3 0 0 0 0 0 0 0 0 0 0 0 0 0 0 0 0 0 0 0 0 0 0
75 35 1 0 0 0 0 0 0 0 0 0 0 0 0 0 0 0 0 0 0 0 0 0 0 0 0 0 0 0 0 0 0 0 0 0 0 0 0 0 0 0
6 1 0 0 0 0 0 0 0 0 0 0 0 0 0 0 0 0 0 0 0 0 0 0 0 0 0 0 0 0 0 0 0 0 0 0 0 0 0 0 0 0
0 0 0 0 0 0 0 0 0 0 0 0 0 0 0 0 0 0 0 0 0 0 0 0 0 0 0 0 0 0 0 0 0 0 0 0 0 0 0 0 0 0
0 0 0 0 0 0 0 0 0 0 0 0 0 0 0 0 0 0 0 0 0 0 0 0 0 0 0 0 0 0 0 0 0 0 0 0 0 0 0 0 0 0
0 0 0 0 120 211 228 206 173 0 0 0 0 0 0 0 0 0 0 0 0 0 0 0 0 0 0 0 0 0 0 0 0 0 0 0 0 0 0 0 0 0
348 455 478 473 430 390 359 312 231 0 0 0 0 0 0 0 0 0 0 0 0 0 0 0 0 0 0 0 0 0 0 0 0 0 0 0 0 0 0 0 0 0
530 581 606 570 593 504 497 371 0 0 0 0 0 0 0 0 0 0 0 0 0 0 0 0 0 0 0 0 0 0 0 0 0 0 0 0 0 0 0 0 0 0
756 756 635 562 475 524 477 177 0 0 0 0 0 0 0 0 0 0 0 0 0 0 0 0 0 0 0 0 0 0 0 0 0 0 0 0 0 0 0 0 0 0
818 714 614 454 418 375 146 0 0 0 0 0 0 0 0 0 0 0 0 0 0 0 0 0 0 0 0 0 0 0 0 0 0 2 7 0 0 0 0 0 0 0
824 667 593 481 424 489 450 256 26 16 10 7 8 0 0 0 0 0 0 0 0 0 0 0 0 0 0 0 0 0 0 4 0 8 6 34 0 66 5 0 17 14
969 977 914 782 473 400 415 482 437 280 198 70 101 61 0 0 0 0 0 0 0 0 0 0 0 0 0 0 0 0 0 0 4 0 0 189 199 275 280 264 162 0
936 954 808 652 596 534 461 430 389 339 465 397 158 115 52 0 0 0 0 0 0 0 0 0 0 0 0 0 0 0 0 1 65 12 29 178 336 360 345 340 256 9
817 780 634 612 576 606 592 476 433 557 504 496 443 511 312 277 309 53 50 4 0 0 0 0 0 0 0 0 0 0 0 15 86 186 287 196 375 356 409 410 393 1
556 599 543 612 558 530 551 475 466 482 510 532 513 568 610 504 294 357 376 192 125 35 4 1 0 0 0 0 0 0 7 298 421 440 490 93 396 376 392 429 389 300
339 194 232 275 399 464 562 472 432 385 473 591 629 810 721 729 563 318 407 579 467 297 28 2 0 0 0 0 0 0 27 434 548 546 576 563 458 36 0 364 325 0
157 102 142 153 114 264 443 498 497 587 551 581 715 812 674 620 664 588 451 466 563 594 564 425 453 390 0 0 0 0 534 584 619 650 662 651 642 586 499 258 0 0
0 0 20 41 0 0 0 1 241 255 604 738 685 655 622 649 688 728 655 490 493 598 567 517 540 509 469 170 0 0 475 653 688 723 723 720 677 709 692 573 479 347
2 0 0 0 0 0 0 0 0 0 0 0 432 579 658 669 647 634 671 734 704 638 624 593 559 513 501 512 498 438 368 577 669 699 733 716 660 525 227 116 3 13
0 0 0 0 0 0 0 0 0 0 0 0 0 0 157 857 791 726 701 711 743 762 724 638 609 602 537 536 559 566 490 413 518 585 606 575 514 304 8 132 84 2
0 0 0 0 0 0 0 0 0 0 0 0 0 0 0 0 0 124 624 730 777 795 740 701 709 680 694 684 603 554 526 423 70 468 511 490 423 262 0 0 0 0
0 0 0 0 0 0 0 1 3 4 2 0 0 0 0 0 0 0 233 606 766 767 765 752 700 654 654 659 672 654 588 527 489 383 243 393 322 0 0 11 44 118
0 0 0 0 0 1 1 0 0 0 0 0 0 0 0 0 0 0 0 152 624 740 763 741 662 633 574 551 555 538 502 469 423 385 0 394 228 0 0 0 0 0
Wind_Speed
nan nan nan nan nan nan nan nan nan nan nan nan nan nan nan nan nan nan nan nan nan nan nan nan nan 19 18 16 16 15 14 nan 12 13 nan nan nan nan nan nan nan nan
nan nan nan nan nan nan nan nan nan nan nan nan nan nan nan nan nan nan nan nan nan nan nan nan nan nan nan nan 18 nan nan nan 14 13 nan nan nan nan nan nan nan nan
nan nan nan nan nan nan nan nan nan nan nan nan nan nan nan nan nan nan nan nan nan nan nan nan nan nan nan nan nan nan nan nan nan nan nan nan nan nan nan nan nan nan
nan nan nan nan nan nan nan nan nan nan nan nan nan nan nan nan nan nan nan nan nan nan nan nan nan nan nan nan nan nan nan nan nan nan nan nan nan nan nan nan nan nan
nan nan nan nan nan nan nan nan nan nan nan nan nan nan nan nan nan nan nan nan nan nan nan nan nan nan nan nan nan nan nan nan nan nan nan nan nan nan nan nan nan nan
nan nan nan nan nan nan nan nan nan nan nan nan nan nan nan nan nan nan nan nan nan nan nan nan nan nan nan nan nan nan nan nan nan nan nan nan nan nan nan nan nan nan
nan nan nan nan nan nan nan nan nan nan nan nan nan nan nan nan nan nan nan nan nan nan nan nan nan nan nan nan nan nan nan nan nan nan nan nan nan nan nan nan nan nan
nan nan nan nan nan nan nan nan nan nan nan nan nan nan nan nan nan nan nan nan nan nan nan nan nan nan nan nan nan nan nan nan nan nan nan nan nan nan nan nan nan nan
nan nan nan nan 16 17 18 19 18 nan nan nan nan nan nan nan nan nan nan nan nan nan nan nan nan nan nan nan nan nan nan nan nan nan nan nan nan nan nan nan nan nan
17 15 16 16 18 18 19 19 20 nan nan nan nan nan nan nan nan nan nan nan nan nan nan nan nan nan nan nan nan nan nan nan nan nan nan nan nan nan nan nan nan nan
18 17 18 18 19 20 20 20 nan nan nan nan nan nan nan nan nan nan nan nan nan nan nan nan nan nan nan nan nan nan nan nan nan nan nan nan nan nan nan nan nan nan
20 19 19 18 19 19 19 19 nan nan nan nan nan nan nan nan nan nan nan nan nan nan nan nan nan nan nan nan nan nan nan nan nan nan nan nan nan nan nan nan nan nan
21 20 19 20 20 19 19 nan nan nan nan nan nan nan nan nan nan nan nan nan nan nan nan nan nan nan nan nan nan nan nan nan nan nan nan nan nan nan nan nan nan nan
21 22 23 22 22 23 21 18 nan nan nan nan nan nan nan nan nan nan nan nan nan nan nan nan nan nan nan nan nan nan nan nan nan nan nan nan nan nan nan nan nan nan
23 23 23 23 23 23 22 21 20 17 14 nan 15 nan nan nan nan nan nan nan nan nan nan nan nan nan nan nan nan nan nan nan nan nan nan 27 27 27 26 26 26 nan
23 24 23 22 22 20 19 19 19 21 21 18 19 19 nan nan nan nan nan nan nan nan nan nan nan nan nan nan nan nan nan nan nan nan nan 30 30 29 27 26 26 nan
21 23 23 22 21 23 22 21 21 21 22 22 22 23 23 23 22 nan nan nan nan nan nan nan nan nan nan nan nan nan nan nan nan 31 31 32 32 32 31 30 29 nan
21 22 24 23 23 24 22 22 23 22 22 21 22 22 23 24 24 23 23 22 22 nan nan nan nan nan nan nan nan nan nan 31 31 33 34 nan 33 33 33 33 33 33
22 23 24 24 23 24 25 25 24 23 23 22 22 22 23 24 24 25 24 25 25 24 nan nan nan nan nan nan nan nan nan 36 33 34 35 33 33 nan nan 34 35 nan
30 28 27 27 27 26 26 27 26 24 23 24 25 25 25 24 25 26 25 27 30 32 32 29 29 29 nan nan nan nan 33 38 36 35 33 32 32 33 34 34 nan nan
nan nan nan nan nan nan nan nan 32 30 28 27 28 27 27 27 27 27 28 29 32 35 36 34 32 36 35 36 nan nan 39 35 38 38 35 34 32 32 31 32 30 31
nan nan nan nan nan nan nan nan nan nan nan nan 33 32 32 33 33 34 32 33 34 38 39 37 34 35 36 36 35 39 41 39 40 41 40 37 37 35 30 32 nan nan
nan nan nan nan nan nan nan nan nan nan nan nan nan nan 36 34 34 35 35 36 37 39 39 37 36 33 37 40 40 40 42 40 41 41 41 40 40 40 nan 37 nan nan
nan nan nan nan nan nan nan nan nan nan nan nan nan nan nan nan nan 36 37 38 37 36 37 38 37 35 38 43 45 45 46 44 nan 44 43 44 43 40 nan nan nan nan
nan nan nan nan nan nan nan nan nan nan nan nan nan nan nan nan nan nan 36 36 37 37 38 40 41 39 41 44 46 45 47 47 48 49 47 44 45 nan nan nan nan 37
nan nan nan nan nan nan nan nan nan nan nan nan nan nan nan nan nan nan nan 38 37 39 41 45 46 47 49 48 46 46 49 51 51 49 nan 48 48 nan nan nan nan nan
Wind_Direction
nan nan nan nan nan nan nan nan nan nan nan nan nan nan nan nan nan nan nan nan nan nan nan nan nan 272 274 274 275 275 274 nan 270 271 nan nan nan nan nan nan nan nan
nan nan nan nan nan nan nan nan nan nan nan nan nan nan nan nan nan nan nan nan nan nan nan nan nan nan nan nan 272 nan nan nan 277 276 nan nan nan nan nan nan nan nan
nan nan nan nan nan nan nan nan nan nan nan nan nan nan nan nan nan nan nan nan nan nan nan nan nan nan nan nan nan nan nan nan nan nan nan nan nan nan nan nan nan nan
nan nan nan nan nan nan nan nan nan nan nan nan nan nan nan nan nan nan nan nan nan nan nan nan nan nan nan nan nan nan nan nan nan nan nan nan nan nan nan nan nan nan
nan nan nan nan nan nan nan nan nan nan nan nan nan nan nan nan nan nan nan nan nan nan nan nan nan nan nan nan nan nan nan nan nan nan nan nan nan nan nan nan nan nan
nan nan nan nan nan nan nan nan nan nan nan nan nan nan nan nan nan nan nan nan nan nan nan nan nan nan nan nan nan nan nan nan nan nan nan nan nan nan nan nan nan nan
nan nan nan nan nan nan nan nan nan nan nan nan nan nan nan nan nan nan nan nan nan nan nan nan nan nan nan nan nan nan nan nan nan nan nan nan nan nan nan nan nan nan
nan nan nan nan nan nan nan nan nan nan nan nan nan nan nan nan nan nan nan nan nan nan nan nan nan nan nan nan nan nan nan nan nan nan nan nan nan nan nan nan nan nan
nan nan nan nan 237 238 245 247 248 nan nan nan nan nan nan nan nan nan nan nan nan nan nan nan nan nan nan nan nan nan nan nan nan nan nan nan nan nan nan nan nan nan
251 246 246 240 238 243 248 249 252 nan nan nan nan nan nan nan nan nan nan nan nan nan nan nan nan nan nan nan nan nan nan nan nan nan nan nan nan nan nan nan nan nan
243 246 249 244 245 247 251 252 nan nan nan nan nan nan nan nan nan nan nan nan nan nan nan nan nan nan nan nan nan nan nan nan nan nan nan nan nan nan nan nan nan nan
237 245 250 248 249 252 254 254 nan nan nan nan nan nan nan nan nan nan nan nan nan nan nan nan nan nan nan nan nan nan nan nan nan nan nan nan nan nan nan nan nan nan
230 237 240 239 242 250 254 nan nan nan nan nan nan nan nan nan nan nan nan nan nan nan nan nan nan nan nan nan nan nan nan nan nan nan nan nan nan nan nan nan nan nan
234 233 234 236 237 240 247 254 nan nan nan nan nan nan nan nan nan nan nan nan nan nan nan nan nan nan nan nan nan nan nan nan nan nan nan nan nan nan nan nan nan nan
232 229 230 236 237 237 237 240 244 247 251 nan 253 nan nan nan nan nan nan nan nan nan nan nan nan nan nan nan nan nan nan nan nan nan nan 291 291 292 291 289 290 nan
227 227 230 233 235 237 241 240 239 240 242 242 244 249 nan nan nan nan nan nan nan nan nan nan nan nan nan nan nan nan nan nan nan nan nan 297 296 294 291 287 288 nan
240 237 241 239 233 233 240 244 242 243 243 242 245 249 247 245 248 nan nan nan nan nan nan nan nan nan nan nan nan nan nan nan nan 295 294 295 295 295 292 290 286 nan
258 251 247 240 237 238 244 246 245 245 244 241 241 243 245 246 247 244 249 259 266 nan nan nan nan nan nan nan nan nan nan 298 296 293 290 nan 287 289 289 288 289 287
259 257 255 249 247 249 247 249 251 250 247 247 247 250 249 251 255 254 253 252 253 259 nan nan nan nan nan nan nan nan nan 304 296 293 292 290 287 nan nan 286 289 nan
249 249 248 248 247 246 250 254 257 257 254 252 253 254 254 254 260 263 263 261 261 261 264 266 271 276 nan nan nan nan 303 297 293 294 293 293 291 291 288 288 nan nan
nan nan nan nan nan nan nan nan 247 246 250 256 260 262 263 265 268 265 262 264 267 270 269 269 270 273 282 288 nan nan 289 283 283 281 280 279 280 279 280 278 279 284
nan nan nan nan nan nan nan nan nan nan nan nan 252 253 256 261 263 264 264 264 269 271 272 272 272 282 289 293 297 294 291 284 284 286 289 290 285 280 278 279 nan nan
nan nan nan nan nan nan nan nan nan nan nan nan nan nan 257 260 264 267 268 270 271 273 274 270 270 280 292 299 302 301 291 286 284 285 285 285 285 283 nan 291 nan nan
nan nan nan nan nan nan nan nan nan nan nan nan nan nan nan nan nan 262 267 271 272 270 270 267 268 280 295 299 302 301 297 291 nan 287 288 287 284 283 nan nan nan nan
nan nan nan nan nan nan nan nan nan nan nan nan nan nan nan nan nan nan 259 264 267 265 265 266 267 275 287 293 296 296 293 285 284 282 282 284 286 nan nan nan nan 282
nan nan nan nan nan nan nan nan nan nan nan nan nan nan nan nan nan nan nan 263 262 262 265 267 270 274 283 292 293 292 291 284 284 285 nan 286 286 nan nan nan nan nan